FW6934 Weather Reports


time (UTC)temp
F
wind
direction
speed
knots
gust
knots
rain 1hr
in
rain 24hr
in
rain mn
in
humidity
%
barometer
mb
20260902104020 58 137 0.0 1.7 0.00 0.00 0.00 81 997.7
20260902103521 58 57 0.0 2.6 0.00 0.00 0.00 82 997.7
20260902103050 58 58 0.0 1.7 0.00 0.00 0.00 82 997.8
20260902102556 58 192 0.0 1.7 0.00 0.00 0.00 82 997.8
20260902102004 58 192 0.0 3.5 0.00 0.00 0.00 82 997.7
20260902101551 58 192 0.0 3.5 0.00 0.00 0.00 82 997.7
20260902101049 58 229 0.9 2.6 0.00 0.00 0.00 82 997.8
20260902100555 58 274 0.9 3.5 0.00 0.00 0.00 83 997.8
20260902100023 58 278 0.9 2.6 0.00 0.00 0.00 83 997.8
20260902095531 58 248 0.0 2.6 0.00 0.00 0.00 83 997.9
20260902095043 58 250 0.0 2.6 0.00 0.00 0.00 83 997.9
20260902094506 58 251 0.0 1.7 0.00 0.00 0.00 83 997.9
20260902094014 57 88 0.0 1.7 0.00 0.00 0.00 83 997.9
20260902093522 57 88 0.0 2.6 0.00 0.00 0.00 84 997.9
20260902093059 57 78 0.0 3.5 0.00 0.00 0.00 84 998.0
20260902092601 57 261 0.9 6.1 0.00 0.00 0.00 84 998.0
20260902092008 57 184 0.9 6.1 0.00 0.00 0.00 84 998.2
20260902091559 57 215 0.0 1.7 0.00 0.00 0.00 84 998.3
20260902091039 57 213 0.0 0.0 0.00 0.00 0.00 84 998.3
20260902090549 57 210 0.0 0.0 0.00 0.00 0.00 84 998.3
20260902090030 57 210 0.0 0.0 0.00 0.00 0.00 84 998.3
20260902085525 57 210 0.0 0.0 0.00 0.00 0.00 83 998.5
20260902085029 57 210 0.0 0.0 0.00 0.00 0.00 83 998.5
20260902084559 57 210 0.0 0.0 0.00 0.00 0.00 83 998.6
20260902084002 58 210 0.0 0.0 0.00 0.00 0.00 82 998.6
20260902083504 58 210 0.0 0.9 0.00 0.00 0.00 82 998.6
20260902083042 58 210 0.0 1.7 0.00 0.00 0.00 82 998.6
20260902082546 58 210 0.0 1.7 0.00 0.00 0.00 82 998.6
20260902082043 58 210 0.0 1.7 0.00 0.00 0.00 82 998.6
20260902081520 58 209 0.0 2.6 0.00 0.00 0.00 81 998.7
20260902081025 58 210 0.0 2.6 0.00 0.00 0.00 81 998.7
20260902080514 59 271 0.0 2.6 0.00 0.00 0.00 81 998.6
20260902080049 59 267 0.0 2.6 0.00 0.00 0.00 80 998.6
20260902075551 59 340 0.0 0.9 0.00 0.00 0.00 80 998.6
20260902075057 59 340 0.0 1.7 0.00 0.00 0.00 80 998.7
20260902074517 60 340 0.9 1.7 0.00 0.00 0.00 79 998.6
20260902074031 60 167 0.0 1.7 0.00 0.00 0.00 79 998.6
20260902073538 60 167 0.0 0.9 0.00 0.00 0.00 79 998.6
20260902073001 60 167 0.0 2.6 0.00 0.00 0.00 79 998.7
20260902072508 60 167 0.0 0.9 0.00 0.00 0.00 79 998.7
20260902072014 60 32 0.0 1.7 0.00 0.00 0.00 79 998.7
20260902071535 61 170 0.0 1.7 0.00 0.00 0.00 79 998.9
20260902071035 61 170 0.0 2.6 0.00 0.00 0.00 79 998.8
20260902070542 61 170 0.0 5.2 0.00 0.00 0.00 78 998.9
20260902070011 61 142 0.9 7.0 0.00 0.00 0.00 78 999.0
20260902065520 61 158 3.5 7.0 0.00 0.00 0.00 78 999.1
20260902065028 61 232 0.0 4.3 0.00 0.00 0.00 78 999.3
20260902064556 61 172 0.9 7.8 0.00 0.00 0.00 77 999.2
20260902064004 61 183 1.7 8.7 0.00 0.00 0.00 77 999.3
20260902063508 61 213 0.0 3.5 0.00 0.00 0.00 77 999.2
20260902063053 61 213 0.9 7.8 0.00 0.00 0.00 77 999.2
20260902062555 61 217 1.7 7.8 0.00 0.00 0.00 77 999.2
20260902062057 60 172 1.7 5.2 0.00 0.00 0.00 77 999.2
20260902061540 60 184 0.9 6.1 0.00 0.00 0.00 77 999.1
20260902061042 60 194 0.9 6.1 0.00 0.00 0.00 77 999.2
20260902060543 60 264 1.7 4.3 0.00 0.00 0.00 77 999.1
20260902060014 60 153 1.7 4.3 0.00 0.00 0.00 77 999.0
20260902055528 60 227 0.9 3.5 0.00 0.00 0.00 77 999.2
20260902055038 60 100 0.0 0.0 0.00 0.00 0.00 77 999.2
20260902054557 60 100 0.0 0.0 0.00 0.00 0.00 77 999.2
20260902054003 60 100 0.0 0.0 0.00 0.00 0.00 77 999.2
20260902053510 61 228 0.0 0.0 0.00 0.00 0.00 77 999.4
20260902053040 60 228 0.0 0.0 0.00 0.00 0.00 77 999.2
20260902052547 60 228 0.0 0.0 0.00 0.00 0.00 77 999.4
20260902052052 61 228 0.0 0.0 0.00 0.00 0.00 77 999.4
20260902051521 61 228 0.0 0.0 0.00 0.00 0.00 77 999.3
20260902051026 61 228 0.0 0.0 0.00 0.00 0.00 76 999.2
20260902050533 61 228 0.0 0.0 0.00 0.00 0.00 76 999.2
20260902050007 61 228 0.0 0.0 0.00 0.00 0.00 76 999.4
20260902045510 61 228 0.0 0.0 0.00 0.00 0.00 76 999.5
20260902045009 61 228 0.0 0.0 0.00 0.00 0.00 76 999.4
20260902044550 61 228 0.0 0.0 0.00 0.00 0.00 75 999.5
20260902044050 61 229 0.0 0.0 0.00 0.00 0.00 75 999.6
20260902043537 61 229 0.0 0.0 0.00 0.00 0.00 75 999.5
20260902043103 61 229 0.0 0.0 0.00 0.00 0.00 74 999.5
20260902042507 61 229 0.0 0.0 0.00 0.00 0.00 74 999.5
20260902042021 61 229 0.0 0.0 0.00 0.00 0.00 74 999.5
20260902041600 62 229 0.0 0.0 0.00 0.00 0.00 74 999.4
20260902041101 62 229 0.0 0.0 0.00 0.00 0.00 73 999.5
20260902040505 62 235 0.0 1.7 0.00 0.00 0.00 73 999.5
20260902040028 62 235 0.0 2.6 0.00 0.00 0.00 73 999.5
20260902035534 62 235 0.9 2.6 0.00 0.00 0.00 72 999.5
20260902035040 62 154 0.0 1.7 0.00 0.00 0.00 72 999.4
20260902034515 62 153 0.0 3.5 0.00 0.00 0.00 72 999.3
20260902034023 63 140 0.0 3.5 0.00 0.00 0.00 71 999.3
20260902033529 63 255 0.0 0.0 0.00 0.00 0.00 70 999.2
20260902033059 63 255 0.0 0.9 0.00 0.00 0.00 70 999.2
20260902032506 63 255 0.0 1.7 0.00 0.00 0.00 70 999.1
20260902032021 63 284 0.0 1.7 0.00 0.00 0.00 70 999.1
20260902031552 63 173 0.0 1.7 0.00 0.00 0.00 69 999.1
20260902031055 64 173 0.0 2.6 0.00 0.00 0.00 69 999.1
20260902030504 64 173 0.9 2.6 0.00 0.00 0.00 69 999.1
20260902030043 64 196 0.0 1.7 0.00 0.00 0.00 69 999.0
20260902025549 64 196 0.0 2.6 0.00 0.00 0.00 69 999.0
20260902025055 64 196 0.0 2.6 0.00 0.00 0.00 69 999.1
20260902024535 64 211 0.0 1.7 0.00 0.00 0.00 68 999.1
20260902024041 64 192 0.0 2.6 0.00 0.00 0.00 68 999.1
20260902023547 64 191 0.9 2.6 0.00 0.00 0.00 68 999.1
20260902023027 65 155 0.0 2.6 0.00 0.00 0.00 68 999.1
20260902022538 65 155 0.9 2.6 0.00 0.00 0.00 68 999.1
20260902022044 65 286 0.9 3.5 0.00 0.00 0.00 68 999.2
20260902021515 65 260 1.7 5.2 0.00 0.00 0.00 68 999.1
20260902021027 65 156 0.0 7.0 0.00 0.00 0.00 67 999.1
20260902020535 65 230 0.9 7.0 0.00 0.00 0.00 68 999.1
20260902020001 65 148 0.0 3.5 0.00 0.00 0.00 68 999.1
20260902015509 66 142 0.9 3.5 0.00 0.00 0.00 68 999.0
20260902015018 66 146 0.9 3.5 0.00 0.00 0.00 68 999.0
20260902014556 66 169 0.9 4.3 0.00 0.00 0.00 67 999.0
20260902014059 66 170 0.0 4.3 0.00 0.00 0.00 66 999.0
20260902013503 66 143 1.7 4.3 0.00 0.00 0.00 66 998.8
20260902013041 66 128 0.9 6.1 0.00 0.00 0.00 66 998.8
20260902012548 66 223 0.9 6.1 0.00 0.00 0.00 66 998.8
20260902012059 66 290 0.9 6.1 0.00 0.00 0.00 67 998.8
20260902011535 67 196 1.7 5.2 0.00 0.00 0.00 67 998.8
20260902011049 67 168 1.7 4.3 0.00 0.00 0.00 68 998.7
20260902010553 67 246 0.9 4.3 0.00 0.00 0.00 68 998.7
20260902010033 66 250 0.9 2.6 0.00 0.00 0.00 67 998.7
20260902005533 66 228 0.0 1.7 0.00 0.00 0.00 67 998.7
20260902005041 66 149 0.0 0.9 0.00 0.00 0.00 67 998.7
20260902004505 66 149 0.0 4.3 0.00 0.00 0.00 67 998.7
20260902004022 66 149 0.9 4.3 0.00 0.00 0.00 67 998.7
20260902003525 66 246 0.0 7.0 0.00 0.00 0.00 66 998.8
20260902003055 67 173 1.7 7.0 0.00 0.00 0.00 66 998.7
20260902002502 67 99 0.9 8.7 0.00 0.00 0.00 66 998.7
20260902002011 67 205 2.6 8.7 0.00 0.00 0.00 66 998.7
20260902001543 67 91 0.9 6.1 0.00 0.00 0.00 66 998.6
20260902001054 67 178 0.9 4.3 0.00 0.00 0.00 66 998.5
20260902000602 67 152 0.9 6.1 0.00 0.00 0.00 66 998.5
20260902000035 67 148 0.9 6.1 0.00 0.00 0.00 65 998.5
20260901235544 67 175 1.7 5.2 0.00 0.00 0.00 65 998.5
20260901235048 67 181 0.9 5.2 0.00 0.00 0.00 65 998.5
20260901234523 67 153 0.9 5.2 0.00 0.00 0.00 66 998.5
20260901234033 67 235 0.9 5.2 0.00 0.00 0.00 66 998.7
20260901233543 67 152 0.9 6.1 0.00 0.00 0.00 65 998.7
20260901233007 67 202 2.6 6.1 0.00 0.00 0.00 65 998.7
20260901232525 67 194 0.9 7.8 0.00 0.00 0.00 65 998.8
20260901232030 68 253 1.7 7.8 0.00 0.00 0.00 64 998.7
20260901231559 68 254 0.9 5.2 0.00 0.00 0.00 63 998.7
20260901231008 68 200 0.0 5.2 0.00 0.00 0.00 64 998.7
20260901230513 68 194 1.7 7.8 0.00 0.00 0.00 64 998.7
20260901230053 68 113 3.5 7.8 0.00 0.00 0.00 64 998.8
20260901225558 67 262 1.7 7.0 0.00 0.00 0.00 65 998.8
20260901225006 67 250 0.9 6.1 0.00 0.00 0.00 66 998.8
20260901224541 67 175 1.7 6.1 0.00 0.00 0.00 67 998.9
20260901224046 66 305 1.7 5.2 0.00 0.00 0.00 68 998.9
20260901223553 66 238 0.9 4.3 0.00 0.00 0.00 68 999.0
20260901223029 66 215 0.0 4.3 0.00 0.00 0.00 67 999.1
20260901222535 67 325 0.9 5.2 0.00 0.00 0.00 67 999.1
20260901222040 67 153 2.6 6.1 0.00 0.00 0.00 66 999.0
20260901221525 67 252 0.9 6.1 0.00 0.00 0.00 66 999.0
20260901221027 67 190 0.9 7.8 0.00 0.00 0.00 65 998.8
20260901220532 67 180 3.5 7.8 0.00 0.00 0.00 65 998.8
20260901220101 67 206 1.7 5.2 0.00 0.00 0.00 66 998.8
20260901215517 67 165 1.7 6.1 0.00 0.00 0.00 66 998.8
20260901215020 67 173 1.7 7.0 0.00 0.00 0.00 66 998.8
20260901214551 67 198 2.6 5.2 0.00 0.00 0.00 66 998.8
20260901214052 67 123 2.6 4.3 0.00 0.00 0.00 66 998.9
20260901213559 67 163 0.9 7.8 0.00 0.00 0.00 67 998.9
20260901213029 67 176 2.6 6.1 0.00 0.00 0.00 68 998.9
20260901212541 66 355 0.9 4.3 0.00 0.00 0.00 68 998.9
20260901212049 66 80 1.7 4.3 0.00 0.00 0.00 68 999.0
20260901211503 66 115 0.9 2.6 0.00 0.00 0.00 67 999.0
20260901211017 67 69 0.9 3.5 0.00 0.00 0.00 67 998.9
20260901210522 67 229 1.7 5.2 0.00 0.00 0.00 68 999.0
20260901210107 66 162 0.9 3.5 0.00 0.00 0.00 68 998.9
20260901205600 65 215 0.9 3.5 0.00 0.00 0.00 69 999.0
20260901205014 65 205 0.9 3.5 0.00 0.00 0.00 70 999.2
20260901204533 65 172 0.9 3.5 0.00 0.00 0.00 70 999.1
20260901204034 65 254 1.7 3.5 0.00 0.00 0.00 70 999.2
20260901203540 65 191 0.9 4.3 0.00 0.00 0.00 70 999.2
20260901203029 65 194 1.7 4.3 0.00 0.00 0.00 70 999.3
20260901202526 65 265 1.7 4.3 0.00 0.00 0.00 71 999.2
20260901202032 65 190 1.7 4.3 0.00 0.00 0.00 71 999.1
20260901201556 66 205 0.0 2.6 0.00 0.00 0.00 70 999.3
20260901201008 66 191 0.9 3.5 0.00 0.00 0.00 70 999.2
20260901200510 66 288 0.9 6.1 0.00 0.00 0.00 69 999.3
20260901200057 67 311 0.9 6.1 0.00 0.00 0.00 69 999.2
20260901195603 67 171 1.7 3.5 0.00 0.00 0.00 69 999.2
20260901195010 67 176 0.9 2.6 0.00 0.00 0.00 69 999.2
20260901194546 67 184 0.0 2.6 0.00 0.00 0.00 68 999.3
20260901194050 67 169 0.9 7.0 0.00 0.00 0.00 68 999.3
20260901193600 67 76 1.7 7.0 0.00 0.00 0.00 68 999.4
20260901193035 67 223 2.6 5.2 0.00 0.00 0.00 69 999.4
20260901192544 66 166 0.9 4.3 0.00 0.00 0.00 70 999.4
20260901192051 66 328 0.9 4.3 0.00 0.00 0.00 70 999.4
20260901191525 66 209 1.7 3.5 0.00 0.00 0.00 70 999.6
20260901191038 66 158 0.9 5.2 0.00 0.00 0.00 70 999.5
20260901190540 66 219 0.9 7.0 0.00 0.00 0.00 70 999.6
20260901190110 66 217 0.9 4.3 0.00 0.00 0.00 70 999.7
20260901185606 66 207 1.7 4.3 0.00 0.00 0.00 71 999.6
20260901185003 66 83 0.9 6.1 0.00 0.00 0.00 72 999.7
20260901184546 66 161 3.5 6.1 0.00 0.00 0.00 71 999.7
20260901184051 65 26 0.9 2.6 0.00 0.00 0.00 74 999.7
20260901183556 64 178 0.9 2.6 0.00 0.00 0.00 74 999.8
20260901183035 64 308 0.9 3.5 0.00 0.00 0.00 74 999.9
20260901182540 64 188 0.9 4.3 0.00 0.00 0.00 74 999.9
20260901182051 64 183 2.6 5.2 0.00 0.00 0.00 74 999.8
20260901181526 64 234 0.0 7.8 0.00 0.00 0.00 75 999.8
20260901181033 64 282 0.9 7.8 0.00 0.00 0.00 75 999.8
20260901180538 64 351 0.9 3.5 0.00 0.00 0.00 76 999.8
20260901180008 63 173 0.9 2.6 0.00 0.00 0.00 76 999.8
20260901175515 64 50 0.9 7.0 0.00 0.00 0.00 76 999.8
20260901175028 63 173 3.5 7.0 0.00 0.00 0.00 76 999.7
20260901174614 63 155 0.9 7.8 0.00 0.00 0.00 77 999.6
20260901174002 63 170 3.5 7.8 0.00 0.00 0.00 77 999.7
20260901173511 63 196 0.9 6.1 0.00 0.00 0.00 77 999.7
20260901173046 63 138 0.9 6.1 0.00 0.00 0.00 77 999.7
20260901172554 62 89 0.9 6.1 0.00 0.00 0.00 78 999.7
20260901172100 62 120 1.7 4.3 0.00 0.00 0.00 78 999.7
20260901171527 62 209 1.7 4.3 0.00 0.00 0.00 78 999.5
20260901171030 62 279 1.7 6.1 0.00 0.00 0.00 79 999.6
20260901170538 62 259 1.7 6.1 0.00 0.00 0.00 80 999.6
20260901170003 61 49 0.9 6.1 0.00 0.00 0.00 81 999.4
20260901165517 61 63 0.9 6.1 0.00 0.00 0.00 81 999.5
20260901165025 60 192 0.9 3.5 0.00 0.00 0.00 82 999.6
20260901164551 60 63 0.9 2.6 0.00 0.00 0.00 83 999.6
20260901164101 60 213 0.9 2.6 0.00 0.00 0.00 83 999.5
20260901163602 59 123 0.0 1.7 0.00 0.00 0.00 83 999.6
20260901163036 59 126 0.9 1.7 0.00 0.00 0.00 84 999.6
20260901162545 59 126 0.0 1.7 0.00 0.00 0.00 84 999.8
20260901162053 59 128 0.0 1.7 0.00 0.00 0.00 85 999.8
20260901161512 59 74 0.0 1.7 0.00 0.00 0.00 85 999.7
20260901161026 59 59 0.9 1.7 0.00 0.00 0.00 86 999.7
20260901160535 59 59 0.0 1.7 0.00 0.00 0.00 85 999.7
20260901160058 59 95 0.0 0.0 0.00 0.00 0.00 86 999.7
20260901155506 59 95 0.0 0.0 0.00 0.00 0.00 86 999.7
20260901155012 58 94 0.0 0.0 0.00 0.00 0.00 86 999.8
20260901154548 58 94 0.0 0.0 0.00 0.00 0.00 86 999.8
20260901154052 58 94 0.0 0.0 0.00 0.00 0.00 86 999.8
20260901153558 58 94 0.0 0.0 0.00 0.00 0.00 86 999.7
20260901153035 58 94 0.0 0.0 0.00 0.00 0.00 86 999.9
20260901152530 58 94 0.0 0.0 0.00 0.00 0.00 85 999.8
20260901152036 58 94 0.0 0.0 0.00 0.00 0.00 85 999.7
20260901151503 58 94 0.0 0.0 0.00 0.00 0.00 85 999.7
20260901151004 58 94 0.0 0.0 0.00 0.00 0.00 85 999.7
20260901150511 58 94 0.0 0.0 0.00 0.00 0.00 85 999.7
20260901150034 58 94 0.0 0.0 0.00 0.00 0.00 85 999.6
20260901145540 58 94 0.0 0.0 0.00 0.00 0.00 85 999.6
20260901145039 58 94 0.0 0.0 0.00 0.00 0.00 85 999.5
20260901144510 58 94 0.0 0.0 0.00 0.00 0.00 85 999.5
20260901144026 58 94 0.0 0.0 0.00 0.00 0.00 85 999.5
20260901143528 58 94 0.0 0.0 0.00 0.00 0.00 85 999.5
20260901143120 57 94 0.0 0.0 0.00 0.00 0.00 84 999.5
20260901142602 57 94 0.0 0.0 0.00 0.00 0.00 84 999.4
20260901142005 57 94 0.0 0.0 0.00 0.00 0.00 84 999.3
20260901141538 57 94 0.0 0.0 0.00 0.00 0.00 84 999.4
20260901141045 57 94 0.0 0.0 0.00 0.00 0.00 84 999.3
20260901140550 57 94 0.0 0.0 0.00 0.00 0.00 84 999.4
20260901140018 57 94 0.0 0.0 0.00 0.00 0.00 84 999.3
20260901135516 57 94 0.0 0.0 0.00 0.00 0.00 84 999.2
20260901135031 57 94 0.0 0.0 0.00 0.00 0.00 84 999.1
20260901134558 57 94 0.0 0.0 0.00 0.00 0.00 85 999.2
20260901134104 57 94 0.0 0.0 0.00 0.00 0.00 84 999.2
20260901133510 57 94 0.0 0.0 0.00 0.00 0.00 84 999.2
20260901133103 57 94 0.0 0.0 0.00 0.00 0.00 85 999.1
20260901132552 57 94 0.0 0.0 0.00 0.00 0.00 85 999.2
20260901132102 57 94 0.0 0.0 0.00 0.00 0.00 85 999.2
20260901131541 57 94 0.0 0.0 0.00 0.00 0.00 85 999.1
20260901131043 57 93 0.0 0.0 0.00 0.00 0.00 85 999.1
20260901130552 57 93 0.0 0.0 0.00 0.00 0.00 85 999.1
20260901130032 57 93 0.0 0.0 0.00 0.00 0.00 85 999.0
20260901125539 57 93 0.0 0.0 0.00 0.00 0.00 85 999.0
20260901125043 57 93 0.0 0.0 0.00 0.00 0.00 85 998.9
20260901124506 57 93 0.0 0.0 0.00 0.00 0.00 85 998.9
20260901124012 56 93 0.0 0.0 0.00 0.00 0.00 85 998.8
20260901123519 56 93 0.0 0.0 0.00 0.00 0.00 85 998.8
20260901123052 56 93 0.0 0.0 0.00 0.00 0.00 85 998.8
20260901122559 56 93 0.0 0.0 0.00 0.00 0.00 85 999.0
20260901122102 56 93 0.0 0.0 0.00 0.00 0.00 85 999.0
20260901121532 56 93 0.0 0.0 0.00 0.00 0.00 85 999.0
20260901121040 56 93 0.0 0.0 0.00 0.00 0.00 85 999.0
20260901120546 56 93 0.0 0.0 0.00 0.00 0.00 85 998.7
20260901120010 56 93 0.0 0.0 0.00 0.00 0.00 85 998.7
20260901115524 56 93 0.0 0.0 0.00 0.00 0.00 85 998.7
20260901115029 56 93 0.0 0.0 0.00 0.00 0.00 85 998.7
20260901114601 56 93 0.0 0.0 0.00 0.00 0.00 84 998.7
20260901114009 56 93 0.0 0.0 0.00 0.00 0.00 84 998.7
20260901113517 56 93 0.0 0.0 0.00 0.00 0.00 84 998.6
20260901113032 56 93 0.0 0.0 0.00 0.00 0.00 83 998.7
20260901112535 56 93 0.0 0.0 0.00 0.00 0.00 83 998.6
20260901112042 56 93 0.0 0.0 0.00 0.00 0.00 83 998.6
20260901111510 56 93 0.0 0.0 0.00 0.00 0.00 83 998.6
20260901111018 56 46 0.0 0.0 0.00 0.00 0.00 82 998.5
20260901110525 56 46 0.0 0.0 0.00 0.00 0.00 82 998.5
20260901110057 57 46 0.0 0.0 0.00 0.00 0.00 82 998.4
20260901105551 57 46 0.0 0.0 0.00 0.00 0.00 82 998.3
20260901105057 57 46 0.0 0.9 0.00 0.00 0.00 82 998.3
20260901104544 57 46 0.0 1.7 0.00 0.00 0.00 82 998.3